GMT,Max TemperatureF,Mean TemperatureF,Min TemperatureF,Max Dew PointF,MeanDew PointF,Min DewpointF,Max Humidity, Mean Humidity, Min Humidity, Max Sea Level PressureIn, Mean Sea Level PressureIn, Min Sea Level PressureIn, Max VisibilityMiles, Mean VisibilityMiles, Min VisibilityMiles, Max Wind SpeedMPH, Mean Wind SpeedMPH, Max Gust SpeedMPH,PrecipitationIn, CloudCover, Events, WindDirDegrees
2013-1-1,46,42,38,45,37,34,93,80,59,30.06,29.78,29.50,19,8,4,17,11,,0.00,3,Rain,270
2013-1-2,52,44,35,50,42,34,94,89,77,30.35,30.22,30.06,19,8,4,17,8,,0.01,6,Rain,238
2013-1-3,52,50,48,49,48,46,100,89,81,30.63,30.51,30.33,19,7,6,15,11,,0.00,6,,262
2013-1-4,50,48,46,46,45,43,93,84,73,30.66,30.63,30.60,19,7,5,15,11,,0.00,6,,271
2013-1-5,51,48,44,48,46,43,100,90,77,30.61,30.57,30.54,19,6,2,14,9,,0.00,6,Rain,246
2013-1-6,48,44,41,46,44,39,100,95,86,30.54,30.47,30.39,9,3,0,12,6,,0.00,6,Fog,220
2013-1-7,48,46,44,46,44,43,93,90,84,30.39,30.31,30.24,12,6,4,13,9,22,0.00,6,Rain,207
2013-1-8,52,49,46,48,46,45,100,86,74,30.27,30.23,30.18,19,7,2,16,8,21,0.04,6,Rain,216
2013-1-9,48,40,33,48,41,32,100,86,66,30.19,30.15,30.09,12,5,1,7,4,,0.01,5,Rain,354
2013-1-10,39,35,31,36,34,30,100,90,81,30.07,30.00,29.95,9,5,0,7,3,,0.00,5,Fog,322
2013-1-11,44,38,32,39,35,30,100,89,72,30.10,30.05,29.98,14,4,3,8,4,,0.00,3,,355
2013-1-12,41,37,33,37,33,27,100,80,50,29.98,29.90,29.86,19,6,3,17,10,,0.04,5,Rain,90
2013-1-13,38,35,32,34,28,26,81,75,61,30.15,30.10,29.98,10,7,6,12,7,,0.00,4,,17
2013-1-14,39,35,31,36,31,27,94,88,75,30.09,29.85,29.65,12,6,2,13,6,,0.16,4,Rain-Snow,243
2013-1-15,36,32,28,32,30,25,93,82,73,29.89,29.81,29.65,14,6,3,13,8,,0.00,4,,341
2013-1-16,32,29,26,28,27,25,100,91,80,30.04,29.93,29.86,6,3,0,7,4,,0.00,5,Fog,32
2013-1-17,35,30,24,30,27,23,93,83,63,30.09,30.03,29.89,11,5,2,9,3,,0.01,3,,107
2013-1-18,32,30,28,28,27,25,100,85,66,29.89,29.62,29.44,11,3,1,16,12,,0.00,6,Snow,106
2013-1-19,33,32,30,31,28,25,93,84,71,29.50,29.45,29.42,7,5,2,12,9,,0.03,7,Rain-Snow,61
2013-1-20,32,30,28,30,28,25,100,91,75,29.47,29.38,29.30,7,3,1,12,7,,0.02,6,Rain-Snow,10
2013-1-21,35,30,26,30,29,25,100,90,67,29.52,29.37,29.27,9,5,4,7,5,,0.12,6,,209
2013-1-22,37,30,23,33,29,23,100,87,60,29.70,29.57,29.50,11,4,1,21,7,,0.04,5,Fog-Rain-Snow,78
2013-1-23,36,34,33,32,31,28,87,82,73,29.83,29.76,29.68,6,4,3,14,9,,0.02,6,Rain-Snow,73
2013-1-24,36,34,33,31,28,25,87,76,54,30.15,30.02,29.83,13,6,4,12,7,,0.00,6,Snow,61
2013-1-25,37,34,32,36,29,25,93,79,63,30.12,29.93,29.56,16,6,3,18,7,,0.03,6,Rain-Snow,157
2013-1-26,46,40,35,43,37,34,100,84,64,29.84,29.71,29.56,6,5,2,17,11,26,0.01,4,Rain,225
2013-1-27,51,45,39,48,39,32,94,75,45,29.64,29.46,29.27,6,6,4,25,18,36,0.08,3,Rain,232
2013-1-28,51,43,35,46,39,34,93,82,66,29.83,29.68,29.53,17,6,3,26,12,38,0.02,3,Rain,222
2013-1-29,56,52,48,53,50,45,94,88,76,29.67,29.62,29.56,19,6,4,24,16,37,0.01,6,Rain,229
2013-1-30,53,49,44,52,42,36,94,74,45,30.06,29.75,29.52,19,7,2,36,19,47,0.02,3,Rain,252
2013-1-31,50,47,44,45,40,36,87,72,52,30.06,29.89,29.80,14,7,4,29,17,44,0.08,2,Rain,247